| time (UTC) | temp F | wind direction | speed MPH | gust MPH | rain 1hr in | rain 24hr in | rain mn in | humidity % | barometer mb |
| 20260506025517 | 49 | 335 | 2.0 | 5.0 | 0.03 | 0.98 | 0.13 | 98 | 990.0 |
| 20260506024518 | 49 | 20 | 2.0 | 5.0 | 0.02 | 0.97 | 0.12 | 98 | 990.1 |
| 20260506023519 | 49 | 35 | 1.0 | 6.0 | 0.02 | 0.96 | 0.11 | 98 | 990.1 |
| 20260506022515 | 49 | 3 | 2.0 | 7.0 | 0.02 | 0.96 | 0.11 | 98 | 990.0 |
| 20260506021516 | 49 | 2 | 2.0 | 4.0 | 0.02 | 0.95 | 0.10 | 98 | 990.0 |
| 20260506020518 | 49 | 2 | 1.0 | 4.0 | 0.02 | 0.95 | 0.10 | 98 | 989.9 |
| 20260506015559 | 49 | 44 | 1.0 | 4.0 | 0.02 | 0.94 | 0.09 | 98 | 989.9 |
| 20260506014540 | 49 | 336 | 1.0 | 4.0 | 0.02 | 0.94 | 0.09 | 98 | 989.9 |
| 20260506013516 | 49 | 15 | 2.0 | 6.0 | 0.03 | 0.94 | 0.09 | 98 | 989.9 |
| 20260506012517 | 49 | 21 | 1.0 | 5.0 | 0.05 | 0.94 | 0.09 | 98 | 989.8 |
| 20260506011519 | 50 | 49 | 1.0 | 5.0 | 0.06 | 0.94 | 0.09 | 98 | 989.9 |
| 20260506010520 | 50 | 34 | 2.0 | 5.0 | 0.05 | 0.93 | 0.08 | 98 | 989.8 |
| 20260506005516 | 50 | 43 | 2.0 | 6.0 | 0.06 | 0.93 | 0.08 | 98 | 989.8 |
| 20260506004537 | 50 | 352 | 2.0 | 5.0 | 0.05 | 0.92 | 0.07 | 98 | 989.8 |
| 20260506003518 | 50 | 17 | 3.0 | 8.0 | 0.04 | 0.91 | 0.06 | 98 | 989.9 |
| 20260506002519 | 51 | 36 | 2.0 | 6.0 | 0.02 | 0.89 | 0.04 | 98 | 989.9 |
| 20260506001520 | 51 | 18 | 1.0 | 3.0 | 0.02 | 0.88 | 0.03 | 98 | 989.9 |
| 20260506000516 | 51 | 21 | 3.0 | 7.0 | 0.02 | 0.88 | 0.03 | 98 | 989.9 |
| 20260505235517 | 51 | 19 | 2.0 | 7.0 | 0.02 | 0.87 | 0.02 | 98 | 989.9 |
| 20260505234538 | 51 | 42 | 2.0 | 4.0 | 0.02 | 0.87 | 0.02 | 98 | 989.9 |
| 20260505233519 | 51 | 51 | 3.0 | 12.0 | 0.01 | 0.87 | 0.02 | 98 | 989.9 |
| 20260505232515 | 51 | 1 | 4.0 | 10.0 | 0.02 | 0.87 | 0.02 | 98 | 989.9 |
| 20260505231556 | 52 | 7 | 3.0 | 7.0 | 0.02 | 0.87 | 0.02 | 98 | 989.9 |
| 20260505230518 | 52 | 24 | 1.0 | 5.0 | 0.01 | 0.86 | 0.01 | 98 | 989.8 |
| 20260505225518 | 52 | 50 | 1.0 | 3.0 | 0.01 | 0.86 | 0.01 | 98 | 989.8 |
| 20260505224520 | 52 | 0.0 | 1.0 | 0.02 | 0.86 | 0.01 | 98 | 989.9 | |
| 20260505223516 | 52 | 39 | 1.0 | 5.0 | 0.02 | 0.86 | 0.01 | 98 | 989.9 |
| 20260505222517 | 52 | 41 | 4.0 | 7.0 | 0.02 | 0.85 | 0.00 | 98 | 990.0 |
| 20260505221518 | 52 | 29 | 2.0 | 5.0 | 0.05 | 0.85 | 0.00 | 98 | 990.0 |
| 20260505220519 | 52 | 40 | 3.0 | 7.0 | 0.06 | 0.85 | 0.00 | 98 | 990.1 |
| 20260505215520 | 52 | 33 | 2.0 | 6.0 | 0.07 | 0.85 | 0.85 | 98 | 990.1 |
| 20260505214516 | 52 | 27 | 2.0 | 6.0 | 0.09 | 0.84 | 0.84 | 98 | 990.1 |
| 20260505213517 | 52 | 13 | 2.0 | 6.0 | 0.11 | 0.84 | 0.84 | 98 | 990.1 |
| 20260505212538 | 52 | 12 | 0.0 | 3.0 | 0.13 | 0.83 | 0.83 | 99 | 990.1 |
| 20260505211519 | 52 | 31 | 1.0 | 4.0 | 0.16 | 0.80 | 0.80 | 98 | 990.2 |
| 20260505210515 | 52 | 35 | 2.0 | 4.0 | 0.19 | 0.80 | 0.80 | 98 | 990.2 |
| 20260505205516 | 52 | 5 | 2.0 | 5.0 | 0.20 | 0.78 | 0.78 | 98 | 990.2 |
| 20260505204518 | 52 | 2 | 1.0 | 6.0 | 0.19 | 0.76 | 0.76 | 98 | 990.1 |
| 20260505203519 | 52 | 25 | 1.0 | 4.0 | 0.17 | 0.73 | 0.73 | 98 | 990.0 |
| 20260505202515 | 52 | 0.0 | 0.0 | 0.13 | 0.69 | 0.69 | 98 | 990.0 | |
| 20260505201516 | 52 | 287 | 0.0 | 2.0 | 0.09 | 0.65 | 0.65 | 98 | 989.9 |
| 20260505200517 | 52 | 353 | 1.0 | 3.0 | 0.06 | 0.61 | 0.61 | 98 | 989.8 |
| 20260505195518 | 52 | 41 | 0.0 | 2.0 | 0.04 | 0.57 | 0.57 | 98 | 989.7 |
| 20260505194520 | 52 | 245 | 0.0 | 4.0 | 0.05 | 0.57 | 0.57 | 98 | 989.6 |
| 20260505193536 | 52 | 304 | 1.0 | 3.0 | 0.07 | 0.57 | 0.57 | 98 | 989.5 |
| 20260505192517 | 52 | 338 | 1.0 | 4.0 | 0.07 | 0.56 | 0.56 | 98 | 989.4 |
| 20260505191518 | 53 | 345 | 1.0 | 3.0 | 0.08 | 0.56 | 0.56 | 98 | 989.3 |
| 20260505190519 | 53 | 320 | 1.0 | 4.0 | 0.07 | 0.54 | 0.54 | 98 | 989.3 |
| 20260505185515 | 53 | 356 | 1.0 | 3.0 | 0.07 | 0.54 | 0.54 | 98 | 989.3 |
| 20260505184517 | 53 | 0.0 | 3.0 | 0.07 | 0.52 | 0.52 | 98 | 989.2 | |
| 20260505183518 | 53 | 22 | 0.0 | 2.0 | 0.06 | 0.50 | 0.50 | 98 | 989.1 |
| 20260505182519 | 53 | 31 | 1.0 | 5.0 | 0.06 | 0.49 | 0.49 | 98 | 989.0 |
| 20260505181515 | 53 | 11 | 1.0 | 4.0 | 0.08 | 0.48 | 0.48 | 98 | 989.0 |
| 20260505180517 | 53 | 0.0 | 0.0 | 0.09 | 0.47 | 0.47 | 98 | 989.0 | |
| 20260505175518 | 53 | 70 | 1.0 | 3.0 | 0.10 | 0.47 | 0.46 | 98 | 989.0 |
| 20260505174539 | 53 | 36 | 1.0 | 4.0 | 0.09 | 0.46 | 0.45 | 98 | 989.1 |
| 20260505173515 | 53 | 357 | 1.0 | 4.0 | 0.11 | 0.45 | 0.44 | 98 | 989.0 |
| 20260505172516 | 53 | 351 | 1.0 | 4.0 | 0.11 | 0.43 | 0.43 | 98 | 989.1 |
| 20260505171517 | 53 | 21 | 2.0 | 5.0 | 0.09 | 0.41 | 0.40 | 98 | 989.1 |
| 20260505170518 | 53 | 9 | 2.0 | 6.0 | 0.08 | 0.39 | 0.38 | 98 | 989.1 |
| 20260505165520 | 53 | 47 | 3.0 | 5.0 | 0.06 | 0.37 | 0.36 | 98 | 989.1 |
| 20260505164541 | 53 | 29 | 2.0 | 6.0 | 0.06 | 0.36 | 0.35 | 98 | 989.1 |
| 20260505163541 | 53 | 12 | 2.0 | 5.0 | 0.05 | 0.34 | 0.33 | 98 | 989.1 |
| 20260505162517 | 53 | 46 | 2.0 | 4.0 | 0.06 | 0.32 | 0.31 | 98 | 989.1 |
| 20260505161519 | 53 | 34 | 3.0 | 7.0 | 0.06 | 0.31 | 0.31 | 98 | 989.1 |
| 20260505160520 | 53 | 10 | 2.0 | 6.0 | 0.08 | 0.31 | 0.30 | 98 | 989.1 |
| 20260505152519 | 53 | 39 | 3.0 | 6.0 | 0.11 | 0.27 | 0.26 | 98 | 989.1 |
| 20260505151600 | 53 | 15 | 2.0 | 9.0 | 0.11 | 0.25 | 0.24 | 98 | 989.2 |
| 20260505150516 | 53 | 39 | 2.0 | 6.0 | 0.10 | 0.23 | 0.22 | 97 | 989.2 |
| 20260505140517 | 54 | 33 | 3.0 | 6.0 | 0.09 | 0.13 | 0.12 | 97 | 989.0 |
| 20260505124520 | 55 | 17 | 4.0 | 10.0 | 0.01 | 0.02 | 0.02 | 96 | 989.2 |
| 20260505123521 | 55 | 43 | 5.0 | 13.0 | 0.01 | 0.02 | 0.02 | 96 | 989.1 |
| 20260505122517 | 55 | 29 | 5.0 | 12.0 | 0.01 | 0.02 | 0.02 | 95 | 989.1 |
| 20260505121518 | 55 | 32 | 5.0 | 10.0 | 0.00 | 0.02 | 0.01 | 95 | 989.2 |
| 20260505120519 | 55 | 36 | 6.0 | 10.0 | 0.00 | 0.02 | 0.01 | 95 | 989.3 |
| 20260505115520 | 55 | 47 | 5.0 | 10.0 | 0.00 | 0.02 | 0.01 | 95 | 989.3 |
| 20260505114536 | 55 | 33 | 4.0 | 8.0 | 0.00 | 0.02 | 0.01 | 95 | 989.3 |
| 20260505113517 | 55 | 34 | 4.0 | 11.0 | 0.00 | 0.02 | 0.01 | 95 | 989.4 |
| 20260505112518 | 55 | 24 | 3.0 | 9.0 | 0.00 | 0.02 | 0.01 | 96 | 989.4 |
| 20260505111519 | 55 | 26 | 5.0 | 9.0 | 0.00 | 0.02 | 0.01 | 96 | 989.6 |
| 20260505110520 | 55 | 40 | 6.0 | 10.0 | 0.00 | 0.02 | 0.01 | 96 | 989.7 |
| 20260505101521 | 54 | 44 | 5.0 | 10.0 | 0.00 | 0.02 | 0.01 | 97 | 990.1 |
| 20260505100516 | 54 | 50 | 3.0 | 7.0 | 0.00 | 0.02 | 0.01 | 97 | 990.0 |
| 20260505095517 | 54 | 43 | 5.0 | 8.0 | 0.00 | 0.02 | 0.01 | 97 | 990.1 |
| 20260505094519 | 55 | 34 | 3.0 | 12.0 | 0.00 | 0.02 | 0.01 | 97 | 990.1 |
| 20260505093519 | 55 | 38 | 3.0 | 8.0 | 0.00 | 0.02 | 0.01 | 97 | 990.1 |
| 20260505092520 | 55 | 48 | 4.0 | 8.0 | 0.00 | 0.02 | 0.01 | 97 | 990.0 |
| 20260505091537 | 55 | 39 | 5.0 | 8.0 | 0.00 | 0.02 | 0.01 | 97 | 990.1 |
| 20260505090517 | 55 | 21 | 3.0 | 5.0 | 0.00 | 0.02 | 0.01 | 97 | 990.1 |
| 20260505085519 | 54 | 49 | 6.0 | 9.0 | 0.00 | 0.02 | 0.01 | 97 | 990.0 |
| 20260505084520 | 54 | 37 | 5.0 | 10.0 | 0.00 | 0.02 | 0.01 | 97 | 990.0 |
| 20260505083541 | 54 | 44 | 4.0 | 9.0 | 0.00 | 0.02 | 0.01 | 98 | 990.0 |
| 20260505082527 | 54 | 43 | 5.0 | 10.0 | 0.00 | 0.02 | 0.01 | 98 | 990.1 |
| 20260505081518 | 54 | 40 | 5.0 | 9.0 | 0.00 | 0.02 | 0.01 | 98 | 990.0 |
| 20260505080519 | 54 | 42 | 4.0 | 8.0 | 0.00 | 0.02 | 0.01 | 97 | 990.1 |
| 20260505075520 | 54 | 41 | 5.0 | 8.0 | 0.00 | 0.03 | 0.01 | 97 | 990.2 |
| 20260505074516 | 54 | 27 | 4.0 | 7.0 | 0.00 | 0.04 | 0.01 | 97 | 990.2 |
| 20260505073517 | 54 | 47 | 4.0 | 8.0 | 0.00 | 0.05 | 0.01 | 96 | 990.2 |
| 20260505072558 | 55 | 35 | 4.0 | 8.0 | 0.00 | 0.05 | 0.01 | 95 | 990.3 |
| 20260505071519 | 55 | 28 | 4.0 | 8.0 | 0.00 | 0.06 | 0.01 | 95 | 990.2 |
| 20260505070520 | 56 | 38 | 3.0 | 6.0 | 0.00 | 0.06 | 0.01 | 95 | 990.2 |
| 20260505065516 | 56 | 49 | 6.0 | 11.0 | 0.00 | 0.06 | 0.01 | 95 | 990.3 |
| 20260505064517 | 56 | 43 | 5.0 | 9.0 | 0.00 | 0.06 | 0.01 | 95 | 990.3 |
| 20260505063518 | 56 | 31 | 5.0 | 11.0 | 0.00 | 0.06 | 0.01 | 95 | 990.3 |
| 20260505062519 | 56 | 37 | 4.0 | 8.0 | 0.01 | 0.06 | 0.01 | 95 | 990.3 |
| 20260505061540 | 56 | 36 | 5.0 | 11.0 | 0.01 | 0.06 | 0.01 | 96 | 990.3 |
| 20260505060536 | 56 | 40 | 5.0 | 8.0 | 0.01 | 0.06 | 0.01 | 96 | 990.4 |
| 20260505055517 | 56 | 38 | 5.0 | 11.0 | 0.01 | 0.06 | 0.01 | 96 | 990.4 |
| 20260505054538 | 56 | 32 | 5.0 | 10.0 | 0.01 | 0.06 | 0.01 | 96 | 990.4 |
| 20260505053519 | 56 | 38 | 4.0 | 9.0 | 0.01 | 0.06 | 0.01 | 96 | 990.4 |
| 20260505052540 | 56 | 38 | 4.0 | 8.0 | 0.00 | 0.06 | 0.00 | 96 | 990.4 |
| 20260505051516 | 55 | 33 | 4.0 | 8.0 | 0.00 | 0.06 | 0.00 | 96 | 990.5 |
| 20260505050518 | 55 | 36 | 4.0 | 8.0 | 0.00 | 0.06 | 0.00 | 96 | 990.5 |
| 20260505041517 | 56 | 41 | 3.0 | 5.0 | 0.00 | 0.06 | 0.00 | 97 | 990.6 |
| 20260505040538 | 56 | 35 | 2.0 | 5.0 | 0.00 | 0.06 | 0.00 | 97 | 990.7 |
| 20260505035519 | 56 | 35 | 2.0 | 5.0 | 0.00 | 0.06 | 0.00 | 97 | 990.7 |
| 20260505034515 | 56 | 41 | 3.0 | 7.0 | 0.00 | 0.06 | 0.00 | 97 | 990.7 |
| 20260505033516 | 56 | 36 | 4.0 | 8.0 | 0.00 | 0.06 | 0.00 | 96 | 990.8 |
| 20260505032518 | 56 | 42 | 5.0 | 10.0 | 0.00 | 0.06 | 0.00 | 96 | 990.9 |
| 20260505031519 | 56 | 42 | 4.0 | 8.0 | 0.00 | 0.06 | 0.00 | 96 | 991.0 |
| 20260505030520 | 56 | 37 | 4.0 | 6.0 | 0.00 | 0.06 | 0.00 | 97 | 991.2 |